Location: Unspecified
(49.8670°N, 0.0000°E)
Time: 13:41:39
(UTC+00:00)

Courier 1B - Pass Details

Date: 18 June 2019
Orbit: 962 x 1209 km, 28.3° (Epoch: 20 August)

Event Time Altitude Azimuth Distance (km) Brightness Sun altitude
Rises 22:02:16 0° 234° (SW) 4,041 10.6 -12.1°
Reaches altitude 10° 22:06:48 10° 210° (SSW) 3,113 9.8 -12.4°
Maximum altitude 22:10:19 14° 183° (S) 2,854 9.4 -12.7°
Enters shadow 22:11:04 14° 176° (S) 2,869 9.4 -12.7°
